Year,Month,Day,Hour,Minute,Value (Times are PST for insolation in W/m^2)
2012,11,29,00,00,0.00
2012,11,29,00,01,0.00
2012,11,29,00,02,0.00
2012,11,29,00,03,0.00
2012,11,29,00,04,0.00
2012,11,29,00,05,0.00
2012,11,29,00,06,0.00
2012,11,29,00,07,0.00
2012,11,29,00,08,0.00
2012,11,29,00,09,0.00
2012,11,29,00,10,0.00
2012,11,29,00,11,0.00
2012,11,29,00,12,0.00
2012,11,29,00,13,0.00
2012,11,29,00,14,0.00
2012,11,29,00,15,0.00
2012,11,29,00,16,0.00
2012,11,29,00,17,0.00
2012,11,29,00,18,0.00
2012,11,29,00,19,0.00
2012,11,29,00,20,0.00
2012,11,29,00,21,0.00
2012,11,29,00,22,0.00
2012,11,29,00,23,0.00
2012,11,29,00,24,0.00
2012,11,29,00,25,0.00
2012,11,29,00,26,0.00
2012,11,29,00,27,0.00
2012,11,29,00,28,0.00
2012,11,29,00,29,0.00
2012,11,29,00,30,0.00
2012,11,29,00,31,0.00
2012,11,29,00,32,0.00
2012,11,29,00,33,0.00
2012,11,29,00,34,0.00
2012,11,29,00,35,0.00
2012,11,29,00,36,0.00
2012,11,29,00,37,0.00
2012,11,29,00,38,0.00
2012,11,29,00,39,0.00
2012,11,29,00,40,0.00
2012,11,29,00,41,0.00
2012,11,29,00,42,0.00
2012,11,29,00,43,0.00
2012,11,29,00,44,0.00
2012,11,29,00,45,0.00
2012,11,29,00,46,0.00
2012,11,29,00,47,0.00
2012,11,29,00,48,0.00
2012,11,29,00,49,0.00
2012,11,29,00,50,0.00
2012,11,29,00,51,0.00
2012,11,29,00,52,0.00
2012,11,29,00,53,0.00
2012,11,29,00,54,0.00
2012,11,29,00,55,0.00
2012,11,29,00,56,0.00
2012,11,29,00,57,0.00
2012,11,29,00,58,0.00
2012,11,29,00,59,0.00
2012,11,29,01,00,0.00
2012,11,29,01,01,0.00
2012,11,29,01,02,0.00
2012,11,29,01,03,0.00
2012,11,29,01,04,0.00
2012,11,29,01,05,0.00
2012,11,29,01,06,0.00
2012,11,29,01,07,0.00
2012,11,29,01,08,0.00
2012,11,29,01,09,0.00
2012,11,29,01,10,0.00
2012,11,29,01,11,0.00
2012,11,29,01,12,0.00
2012,11,29,01,13,0.00
2012,11,29,01,14,0.00
2012,11,29,01,15,0.00
2012,11,29,01,16,0.00
2012,11,29,01,17,0.00
2012,11,29,01,18,0.00
2012,11,29,01,19,0.00
2012,11,29,01,20,0.00
2012,11,29,01,21,0.00
2012,11,29,01,22,0.00
2012,11,29,01,23,0.00
2012,11,29,01,24,0.00
2012,11,29,01,25,0.00
2012,11,29,01,26,0.00
2012,11,29,01,27,0.00
2012,11,29,01,28,0.00
2012,11,29,01,29,0.00
2012,11,29,01,30,0.00
2012,11,29,01,31,0.00
2012,11,29,01,32,0.00
2012,11,29,01,33,0.00
2012,11,29,01,34,0.00
2012,11,29,01,35,0.00
2012,11,29,01,36,0.00
2012,11,29,01,37,0.00
2012,11,29,01,38,0.00
2012,11,29,01,39,0.00
2012,11,29,01,40,0.00
2012,11,29,01,41,0.00
2012,11,29,01,42,0.00
2012,11,29,01,43,0.00
2012,11,29,01,44,0.00
2012,11,29,01,45,0.00
2012,11,29,01,46,0.00
2012,11,29,01,47,0.00
2012,11,29,01,48,0.00
2012,11,29,01,49,0.00
2012,11,29,01,50,0.00
2012,11,29,01,51,0.00
2012,11,29,01,52,0.00
2012,11,29,01,53,0.00
2012,11,29,01,54,0.00
2012,11,29,01,55,0.00
2012,11,29,01,56,0.00
2012,11,29,01,57,0.00
2012,11,29,01,58,0.00
2012,11,29,01,59,0.00
2012,11,29,02,00,0.00
2012,11,29,02,01,0.00
2012,11,29,02,02,0.00
2012,11,29,02,03,0.00
2012,11,29,02,04,0.00
2012,11,29,02,05,0.00
2012,11,29,02,06,0.00
2012,11,29,02,07,0.00
2012,11,29,02,08,0.00
2012,11,29,02,09,0.00
2012,11,29,02,10,0.00
2012,11,29,02,11,0.00
2012,11,29,02,12,0.00
2012,11,29,02,13,0.00
2012,11,29,02,14,0.00
2012,11,29,02,15,0.00
2012,11,29,02,16,0.00
2012,11,29,02,17,0.00
2012,11,29,02,18,0.00
2012,11,29,02,19,0.00
2012,11,29,02,20,0.00
2012,11,29,02,21,0.00
2012,11,29,02,22,0.00
2012,11,29,02,23,0.00
2012,11,29,02,24,0.00
2012,11,29,02,25,0.00
2012,11,29,02,26,0.00
2012,11,29,02,27,0.00
2012,11,29,02,28,0.00
2012,11,29,02,29,0.00
2012,11,29,02,30,0.00
2012,11,29,02,31,0.00
2012,11,29,02,32,0.00
2012,11,29,02,33,0.00
2012,11,29,02,34,0.00
2012,11,29,02,35,0.00
2012,11,29,02,36,0.00
2012,11,29,02,37,0.00
2012,11,29,02,38,0.00
2012,11,29,02,39,0.00
2012,11,29,02,40,0.00
2012,11,29,02,41,0.00
2012,11,29,02,42,0.00
2012,11,29,02,43,0.00
2012,11,29,02,44,0.00
2012,11,29,02,45,0.00
2012,11,29,02,46,0.00
2012,11,29,02,47,0.00
2012,11,29,02,48,0.00
2012,11,29,02,49,0.00
2012,11,29,02,50,0.00
2012,11,29,02,51,0.00
2012,11,29,02,52,0.00
2012,11,29,02,53,0.00
2012,11,29,02,54,0.00
2012,11,29,02,55,0.00
2012,11,29,02,56,0.00
2012,11,29,02,57,0.00
2012,11,29,02,58,0.00
2012,11,29,02,59,0.00
2012,11,29,03,00,0.00
2012,11,29,03,01,0.00
2012,11,29,03,02,0.00
2012,11,29,03,03,0.00
2012,11,29,03,04,0.00
2012,11,29,03,05,0.00
2012,11,29,03,06,0.00
2012,11,29,03,07,0.00
2012,11,29,03,08,0.00
2012,11,29,03,09,0.00
2012,11,29,03,10,0.00
2012,11,29,03,11,0.00
2012,11,29,03,12,0.00
2012,11,29,03,13,0.00
2012,11,29,03,14,0.00
2012,11,29,03,15,0.00
2012,11,29,03,16,0.00
2012,11,29,03,17,0.00
2012,11,29,03,18,0.00
2012,11,29,03,19,0.00
2012,11,29,03,20,0.00
2012,11,29,03,21,0.00
2012,11,29,03,22,0.00
2012,11,29,03,23,0.00
2012,11,29,03,24,0.00
2012,11,29,03,25,0.00
2012,11,29,03,26,0.00
2012,11,29,03,27,0.00
2012,11,29,03,28,0.00
2012,11,29,03,29,0.00
2012,11,29,03,30,0.00
2012,11,29,03,31,0.00
2012,11,29,03,32,0.00
2012,11,29,03,33,0.00
2012,11,29,03,34,0.00
2012,11,29,03,35,0.00
2012,11,29,03,36,0.00
2012,11,29,03,37,0.00
2012,11,29,03,38,0.00
2012,11,29,03,39,0.00
2012,11,29,03,40,0.00
2012,11,29,03,41,0.00
2012,11,29,03,42,0.00
2012,11,29,03,43,0.00
2012,11,29,03,44,0.00
2012,11,29,03,45,0.00
2012,11,29,03,46,0.00
2012,11,29,03,47,0.00
2012,11,29,03,48,0.00
2012,11,29,03,49,0.00
2012,11,29,03,50,0.00
2012,11,29,03,51,0.00
2012,11,29,03,52,0.00
2012,11,29,03,53,0.00
2012,11,29,03,54,0.00
2012,11,29,03,55,0.00
2012,11,29,03,56,0.00
2012,11,29,03,57,0.00
2012,11,29,03,58,0.00
2012,11,29,03,59,0.00
2012,11,29,04,00,0.00
2012,11,29,04,01,0.00
2012,11,29,04,02,0.00
2012,11,29,04,03,0.00
2012,11,29,04,04,0.00
2012,11,29,04,05,0.00
2012,11,29,04,06,0.00
2012,11,29,04,07,0.00
2012,11,29,04,08,0.00
2012,11,29,04,09,0.00
2012,11,29,04,10,0.00
2012,11,29,04,11,0.00
2012,11,29,04,12,0.00
2012,11,29,04,13,0.00
2012,11,29,04,14,0.00
2012,11,29,04,15,0.00
2012,11,29,04,16,0.00
2012,11,29,04,17,0.00
2012,11,29,04,18,0.00
2012,11,29,04,19,0.00
2012,11,29,04,20,0.00
2012,11,29,04,21,0.00
2012,11,29,04,22,0.00
2012,11,29,04,23,0.00
2012,11,29,04,24,0.00
2012,11,29,04,25,0.00
2012,11,29,04,26,0.00
2012,11,29,04,27,0.00
2012,11,29,04,28,0.00
2012,11,29,04,29,0.00
2012,11,29,04,30,0.00
2012,11,29,04,31,0.00
2012,11,29,04,32,0.00
2012,11,29,04,33,0.00
2012,11,29,04,34,0.00
2012,11,29,04,35,0.00
2012,11,29,04,36,0.00
2012,11,29,04,37,0.00
2012,11,29,04,38,0.00
2012,11,29,04,39,0.00
2012,11,29,04,40,0.00
2012,11,29,04,41,0.00
2012,11,29,04,42,0.00
2012,11,29,04,43,0.00
2012,11,29,04,44,0.00
2012,11,29,04,45,0.00
2012,11,29,04,46,0.00
2012,11,29,04,47,0.00
2012,11,29,04,48,0.00
2012,11,29,04,49,0.00
2012,11,29,04,50,0.00
2012,11,29,04,51,0.00
2012,11,29,04,52,0.00
2012,11,29,04,53,0.00
2012,11,29,04,54,0.00
2012,11,29,04,55,0.00
2012,11,29,04,56,0.00
2012,11,29,04,57,0.00
2012,11,29,04,58,0.00
2012,11,29,04,59,0.00
2012,11,29,05,00,0.00
2012,11,29,05,01,0.00
2012,11,29,05,02,0.00
2012,11,29,05,03,0.00
2012,11,29,05,04,0.00
2012,11,29,05,05,0.00
2012,11,29,05,06,0.00
2012,11,29,05,07,0.00
2012,11,29,05,08,0.00
2012,11,29,05,09,0.00
2012,11,29,05,10,0.00
2012,11,29,05,11,0.00
2012,11,29,05,12,0.00
2012,11,29,05,13,0.00
2012,11,29,05,14,0.00
2012,11,29,05,15,0.00
2012,11,29,05,16,0.00
2012,11,29,05,17,0.00
2012,11,29,05,18,0.00
2012,11,29,05,19,0.00
2012,11,29,05,20,0.00
2012,11,29,05,21,0.00
2012,11,29,05,22,0.00
2012,11,29,05,23,0.00
2012,11,29,05,24,0.00
2012,11,29,05,25,0.00
2012,11,29,05,26,0.00
2012,11,29,05,27,0.00
2012,11,29,05,28,0.00
2012,11,29,05,29,0.00
2012,11,29,05,30,0.00
2012,11,29,05,31,0.00
2012,11,29,05,32,0.00
2012,11,29,05,33,0.00
2012,11,29,05,34,0.00
2012,11,29,05,35,0.00
2012,11,29,05,36,0.00
2012,11,29,05,37,0.00
2012,11,29,05,38,0.00
2012,11,29,05,39,0.00
2012,11,29,05,40,0.00
2012,11,29,05,41,0.00
2012,11,29,05,42,0.00
2012,11,29,05,43,0.00
2012,11,29,05,44,0.00
2012,11,29,05,45,0.00
2012,11,29,05,46,0.00
2012,11,29,05,47,0.00
2012,11,29,05,48,0.00
2012,11,29,05,49,0.00
2012,11,29,05,50,0.00
2012,11,29,05,51,0.00
2012,11,29,05,52,0.00
2012,11,29,05,53,0.00
2012,11,29,05,54,0.00
2012,11,29,05,55,0.00
2012,11,29,05,56,0.00
2012,11,29,05,57,0.00
2012,11,29,05,58,0.00
2012,11,29,05,59,0.00
2012,11,29,06,00,0.00
2012,11,29,06,01,0.00
2012,11,29,06,02,0.00
2012,11,29,06,03,0.00
2012,11,29,06,04,0.00
2012,11,29,06,05,0.00
2012,11,29,06,06,0.00
2012,11,29,06,07,0.00
2012,11,29,06,08,0.00
2012,11,29,06,09,0.00
2012,11,29,06,10,0.00
2012,11,29,06,11,0.00
2012,11,29,06,12,0.00
2012,11,29,06,13,0.00
2012,11,29,06,14,0.00
2012,11,29,06,15,0.00
2012,11,29,06,16,0.00
2012,11,29,06,17,0.00
2012,11,29,06,18,0.00
2012,11,29,06,19,0.00
2012,11,29,06,20,0.00
2012,11,29,06,21,0.00
2012,11,29,06,22,0.00
2012,11,29,06,23,0.00
2012,11,29,06,24,0.00
2012,11,29,06,25,0.00
2012,11,29,06,26,0.00
2012,11,29,06,27,0.00
2012,11,29,06,28,0.00
2012,11,29,06,29,0.00
2012,11,29,06,30,0.00
2012,11,29,06,31,0.00
2012,11,29,06,32,0.00
2012,11,29,06,33,0.00
2012,11,29,06,34,0.00
2012,11,29,06,35,0.00
2012,11,29,06,36,0.00
2012,11,29,06,37,0.00
2012,11,29,06,38,0.00
2012,11,29,06,39,0.00
2012,11,29,06,40,0.00
2012,11,29,06,41,0.00
2012,11,29,06,42,0.00
2012,11,29,06,43,0.00
2012,11,29,06,44,0.00
2012,11,29,06,45,0.00
2012,11,29,06,46,0.00
2012,11,29,06,47,0.00
2012,11,29,06,48,0.00
2012,11,29,06,49,0.00
2012,11,29,06,50,0.00
2012,11,29,06,51,0.00
2012,11,29,06,52,0.00
2012,11,29,06,53,0.00
2012,11,29,06,54,0.00
2012,11,29,06,55,0.00
2012,11,29,06,56,0.00
2012,11,29,06,57,0.00
2012,11,29,06,58,0.00
2012,11,29,06,59,0.00
2012,11,29,07,00,0.00
2012,11,29,07,01,0.00
2012,11,29,07,02,0.00
2012,11,29,07,03,0.00
2012,11,29,07,04,0.00
2012,11,29,07,05,0.00
2012,11,29,07,06,0.00
2012,11,29,07,07,0.00
2012,11,29,07,08,0.00
2012,11,29,07,09,0.00
2012,11,29,07,10,0.00
2012,11,29,07,11,0.00
2012,11,29,07,12,0.00
2012,11,29,07,13,0.00
2012,11,29,07,14,0.00
2012,11,29,07,15,0.00
2012,11,29,07,16,0.00
2012,11,29,07,17,0.00
2012,11,29,07,18,0.00
2012,11,29,07,19,0.00
2012,11,29,07,20,0.00
2012,11,29,07,21,0.00
2012,11,29,07,22,0.00
2012,11,29,07,23,0.00
2012,11,29,07,24,0.00
2012,11,29,07,25,0.00
2012,11,29,07,26,0.00
2012,11,29,07,27,0.00
2012,11,29,07,28,0.00
2012,11,29,07,29,0.00
2012,11,29,07,30,0.00
2012,11,29,07,31,0.00
2012,11,29,07,32,0.00
2012,11,29,07,33,0.00
2012,11,29,07,34,0.00
2012,11,29,07,35,0.00
2012,11,29,07,36,0.00
2012,11,29,07,37,0.00
2012,11,29,07,38,0.00
2012,11,29,07,39,0.00
2012,11,29,07,40,0.00
2012,11,29,07,41,0.00
2012,11,29,07,42,0.00
2012,11,29,07,43,0.00
2012,11,29,07,44,0.00
2012,11,29,07,45,0.00
2012,11,29,07,46,0.00
2012,11,29,07,47,0.00
2012,11,29,07,48,0.00
2012,11,29,07,49,0.00
2012,11,29,07,50,0.00
2012,11,29,07,51,0.00
2012,11,29,07,52,0.00
2012,11,29,07,53,0.00
2012,11,29,07,54,0.00
2012,11,29,07,55,0.00
2012,11,29,07,56,0.00
2012,11,29,07,57,0.00
2012,11,29,07,58,0.00
2012,11,29,07,59,0.00
2012,11,29,08,00,0.00
2012,11,29,08,01,0.00
2012,11,29,08,02,0.00
2012,11,29,08,03,0.00
2012,11,29,08,04,0.00
2012,11,29,08,05,0.00
2012,11,29,08,06,0.00
2012,11,29,08,07,0.00
2012,11,29,08,08,0.00
2012,11,29,08,09,0.00
2012,11,29,08,10,0.00
2012,11,29,08,11,0.00
2012,11,29,08,12,0.00
2012,11,29,08,13,0.00
2012,11,29,08,14,0.00
2012,11,29,08,15,0.00
2012,11,29,08,16,0.00
2012,11,29,08,17,0.00
2012,11,29,08,18,0.00
2012,11,29,08,19,0.00
2012,11,29,08,20,0.00
2012,11,29,08,21,0.00
2012,11,29,08,22,0.00
2012,11,29,08,23,0.00
2012,11,29,08,24,0.00
2012,11,29,08,25,5.00
2012,11,29,08,26,5.00
2012,11,29,08,27,5.40
2012,11,29,08,28,7.00
2012,11,29,08,29,7.00
2012,11,29,08,30,7.80
2012,11,29,08,31,9.00
2012,11,29,08,32,8.00
2012,11,29,08,33,7.00
2012,11,29,08,34,8.20
2012,11,29,08,35,9.00
2012,11,29,08,36,9.00
2012,11,29,08,37,10.60
2012,11,29,08,38,11.00
2012,11,29,08,39,11.90
2012,11,29,08,40,14.00
2012,11,29,08,41,14.00
2012,11,29,08,42,14.00
2012,11,29,08,43,14.00
2012,11,29,08,44,13.40
2012,11,29,08,45,11.60
2012,11,29,08,46,11.00
2012,11,29,08,47,10.00
2012,11,29,08,48,9.00
2012,11,29,08,49,9.00
2012,11,29,08,50,9.00
2012,11,29,08,51,9.00
2012,11,29,08,52,10.60
2012,11,29,08,53,11.00
2012,11,29,08,54,11.00
2012,11,29,08,55,12.00
2012,11,29,08,56,12.00
2012,11,29,08,57,12.00
2012,11,29,08,58,12.00
2012,11,29,08,59,12.00
2012,11,29,09,00,12.00
2012,11,29,09,01,12.00
2012,11,29,09,02,13.10
2012,11,29,09,03,15.10
2012,11,29,09,04,17.80
2012,11,29,09,05,18.30
2012,11,29,09,06,18.00
2012,11,29,09,07,18.00
2012,11,29,09,08,18.00
2012,11,29,09,09,18.00
2012,11,29,09,10,19.10
2012,11,29,09,11,21.00
2012,11,29,09,12,21.30
2012,11,29,09,13,24.20
2012,11,29,09,14,30.50
2012,11,29,09,15,36.50
2012,11,29,09,16,39.00
2012,11,29,09,17,36.10
2012,11,29,09,18,32.50
2012,11,29,09,19,30.80
2012,11,29,09,20,28.60
2012,11,29,09,21,24.10
2012,11,29,09,22,19.80
2012,11,29,09,23,19.00
2012,11,29,09,24,19.00
2012,11,29,09,25,21.10
2012,11,29,09,26,23.30
2012,11,29,09,27,24.70
2012,11,29,09,28,23.80
2012,11,29,09,29,25.70
2012,11,29,09,30,23.60
2012,11,29,09,31,21.00
2012,11,29,09,32,21.00
2012,11,29,09,33,21.00
2012,11,29,09,34,22.20
2012,11,29,09,35,25.00
2012,11,29,09,36,25.20
2012,11,29,09,37,29.00
2012,11,29,09,38,32.50
2012,11,29,09,39,30.30
2012,11,29,09,40,42.00
2012,11,29,09,41,41.50
2012,11,29,09,42,40.60
2012,11,29,09,43,50.20
2012,11,29,09,44,56.40
2012,11,29,09,45,58.80
2012,11,29,09,46,60.30
2012,11,29,09,47,69.00
2012,11,29,09,48,63.60
2012,11,29,09,49,63.00
2012,11,29,09,50,66.40
2012,11,29,09,51,81.20
2012,11,29,09,52,90.00
2012,11,29,09,53,91.00
2012,11,29,09,54,78.40
2012,11,29,09,55,86.00
2012,11,29,09,56,86.00
2012,11,29,09,57,85.00
2012,11,29,09,58,78.80
2012,11,29,09,59,70.50
2012,11,29,10,00,66.20
2012,11,29,10,01,65.00
2012,11,29,10,02,67.00
2012,11,29,10,03,70.70
2012,11,29,10,04,75.00
2012,11,29,10,05,81.20
2012,11,29,10,06,88.20
2012,11,29,10,07,92.40
2012,11,29,10,08,102.40
2012,11,29,10,09,110.60
2012,11,29,10,10,112.60
2012,11,29,10,11,105.40
2012,11,29,10,12,108.20
2012,11,29,10,13,103.70
2012,11,29,10,14,97.90
2012,11,29,10,15,90.60
2012,11,29,10,16,84.70
2012,11,29,10,17,83.00
2012,11,29,10,18,83.00
2012,11,29,10,19,83.00
2012,11,29,10,20,85.10
2012,11,29,10,21,87.60
2012,11,29,10,22,90.40
2012,11,29,10,23,94.40
2012,11,29,10,24,95.00
2012,11,29,10,25,89.70
2012,11,29,10,26,83.00
2012,11,29,10,27,83.50
2012,11,29,10,28,87.00
2012,11,29,10,29,92.10
2012,11,29,10,30,99.80
2012,11,29,10,31,108.60
2012,11,29,10,32,120.80
2012,11,29,10,33,133.90
2012,11,29,10,34,139.00
2012,11,29,10,35,187.60
2012,11,29,10,36,207.00
2012,11,29,10,37,225.40
2012,11,29,10,38,229.10
2012,11,29,10,39,305.00
2012,11,29,10,40,275.50
2012,11,29,10,41,343.00
2012,11,29,10,42,313.80
2012,11,29,10,43,197.80
2012,11,29,10,44,202.10
2012,11,29,10,45,205.20
2012,11,29,10,46,230.40
2012,11,29,10,47,252.70
2012,11,29,10,48,214.80
2012,11,29,10,49,188.50
2012,11,29,10,50,180.20
2012,11,29,10,51,172.80
2012,11,29,10,52,171.80
2012,11,29,10,53,169.30
2012,11,29,10,54,177.50
2012,11,29,10,55,179.00
2012,11,29,10,56,178.90
2012,11,29,10,57,179.40
2012,11,29,10,58,187.50
2012,11,29,10,59,198.70
2012,11,29,11,00,206.40
2012,11,29,11,01,204.80
2012,11,29,11,02,197.50
2012,11,29,11,03,191.40
2012,11,29,11,04,190.00
2012,11,29,11,05,193.40
2012,11,29,11,06,198.80
2012,11,29,11,07,207.20
2012,11,29,11,08,210.80
2012,11,29,11,09,212.90
2012,11,29,11,10,213.00
2012,11,29,11,11,212.40
2012,11,29,11,12,208.60
2012,11,29,11,13,207.50
2012,11,29,11,14,210.50
2012,11,29,11,15,214.00
2012,11,29,11,16,214.00
2012,11,29,11,17,217.50
2012,11,29,11,18,225.80
2012,11,29,11,19,230.90
2012,11,29,11,20,243.70
2012,11,29,11,21,253.80
2012,11,29,11,22,249.10
2012,11,29,11,23,236.10
2012,11,29,11,24,224.10
2012,11,29,11,25,223.00
2012,11,29,11,26,238.10
2012,11,29,11,27,377.40
2012,11,29,11,28,374.90
2012,11,29,11,29,343.20
2012,11,29,11,30,349.00
2012,11,29,11,31,283.40
2012,11,29,11,32,247.60
2012,11,29,11,33,232.10
2012,11,29,11,34,227.80
2012,11,29,11,35,227.00
2012,11,29,11,36,225.50
2012,11,29,11,37,228.20
2012,11,29,11,38,233.50
2012,11,29,11,39,256.80
2012,11,29,11,40,264.80
2012,11,29,11,41,277.80
2012,11,29,11,42,265.60
2012,11,29,11,43,235.80
2012,11,29,11,44,209.70
2012,11,29,11,45,201.20
2012,11,29,11,46,193.20
2012,11,29,11,47,181.10
2012,11,29,11,48,182.30
2012,11,29,11,49,170.70
2012,11,29,11,50,174.20
2012,11,29,11,51,179.00
2012,11,29,11,52,178.20
2012,11,29,11,53,190.80
2012,11,29,11,54,196.60
2012,11,29,11,55,200.40
2012,11,29,11,56,263.00
2012,11,29,11,57,249.50
2012,11,29,11,58,244.00
2012,11,29,11,59,252.40
2012,11,29,12,00,298.80
2012,11,29,12,01,307.40
2012,11,29,12,02,289.50
2012,11,29,12,03,326.50
2012,11,29,12,04,319.20
2012,11,29,12,05,303.80
2012,11,29,12,06,253.20
2012,11,29,12,07,237.00
2012,11,29,12,08,237.00
2012,11,29,12,09,408.50
2012,11,29,12,10,342.00
2012,11,29,12,11,332.70
2012,11,29,12,12,397.00
2012,11,29,12,13,397.00
2012,11,29,12,14,330.70
2012,11,29,12,15,176.00
2012,11,29,12,16,156.80
2012,11,29,12,17,116.00
2012,11,29,12,18,93.00
2012,11,29,12,19,87.60
2012,11,29,12,20,82.80
2012,11,29,12,21,70.00
2012,11,29,12,22,65.40
2012,11,29,12,23,68.40
2012,11,29,12,24,66.80
2012,11,29,12,25,60.50
2012,11,29,12,26,70.30
2012,11,29,12,27,69.60
2012,11,29,12,28,57.80
2012,11,29,12,29,53.10
2012,11,29,12,30,70.80
2012,11,29,12,31,115.70
2012,11,29,12,32,151.00
2012,11,29,12,33,234.40
2012,11,29,12,34,295.00
2012,11,29,12,35,200.50
2012,11,29,12,36,160.00
2012,11,29,12,37,160.00
2012,11,29,12,38,160.00
2012,11,29,12,39,160.00
2012,11,29,12,40,49.20
2012,11,29,12,41,53.00
2012,11,29,12,42,53.00
2012,11,29,12,43,52.50
2012,11,29,12,44,51.00
2012,11,29,12,45,51.70
2012,11,29,12,46,50.30
2012,11,29,12,47,50.00
2012,11,29,12,48,60.20
2012,11,29,12,49,99.80
2012,11,29,12,50,95.70
2012,11,29,12,51,84.00
2012,11,29,12,52,83.20
2012,11,29,12,53,87.20
2012,11,29,12,54,96.60
2012,11,29,12,55,95.90
2012,11,29,12,56,103.70
2012,11,29,12,57,99.10
2012,11,29,12,58,90.50
2012,11,29,12,59,104.30
2012,11,29,13,00,117.60
2012,11,29,13,01,120.40
2012,11,29,13,02,120.50
2012,11,29,13,03,121.70
2012,11,29,13,04,128.40
2012,11,29,13,05,153.00
2012,11,29,13,06,228.80
2012,11,29,13,07,251.00
2012,11,29,13,08,251.00
2012,11,29,13,09,384.60
2012,11,29,13,10,370.50
2012,11,29,13,11,351.50
2012,11,29,13,12,292.00
2012,11,29,13,13,254.50
2012,11,29,13,14,141.70
2012,11,29,13,15,140.30
2012,11,29,13,16,140.40
2012,11,29,13,17,146.50
2012,11,29,13,18,138.40
2012,11,29,13,19,128.00
2012,11,29,13,20,132.20
2012,11,29,13,21,140.00
2012,11,29,13,22,158.80
2012,11,29,13,23,162.90
2012,11,29,13,24,155.30
2012,11,29,13,25,152.70
2012,11,29,13,26,148.40
2012,11,29,13,27,151.00
2012,11,29,13,28,210.20
2012,11,29,13,29,387.00
2012,11,29,13,30,383.30
2012,11,29,13,31,383.70
2012,11,29,13,32,384.90
2012,11,29,13,33,383.00
2012,11,29,13,34,262.10
2012,11,29,13,35,197.00
2012,11,29,13,36,197.00
2012,11,29,13,37,213.80
2012,11,29,13,38,228.80
2012,11,29,13,39,255.60
2012,11,29,13,40,257.90
2012,11,29,13,41,270.30
2012,11,29,13,42,256.40
2012,11,29,13,43,331.00
2012,11,29,13,44,310.30
2012,11,29,13,45,260.90
2012,11,29,13,46,198.50
2012,11,29,13,47,162.50
2012,11,29,13,48,152.10
2012,11,29,13,49,149.00
2012,11,29,13,50,148.30
2012,11,29,13,51,154.00
2012,11,29,13,52,196.80
2012,11,29,13,53,212.10
2012,11,29,13,54,220.90
2012,11,29,13,55,373.20
2012,11,29,13,56,414.80
2012,11,29,13,57,425.00
2012,11,29,13,58,378.20
2012,11,29,13,59,269.00
2012,11,29,14,00,300.60
2012,11,29,14,01,327.30
2012,11,29,14,02,272.50
2012,11,29,14,03,241.80
2012,11,29,14,04,244.10
2012,11,29,14,05,242.30
2012,11,29,14,06,244.80
2012,11,29,14,07,249.20
2012,11,29,14,08,241.90
2012,11,29,14,09,230.60
2012,11,29,14,10,221.60
2012,11,29,14,11,228.10
2012,11,29,14,12,232.20
2012,11,29,14,13,221.50
2012,11,29,14,14,209.60
2012,11,29,14,15,208.60
2012,11,29,14,16,214.00
2012,11,29,14,17,218.00
2012,11,29,14,18,215.70
2012,11,29,14,19,211.00
2012,11,29,14,20,204.00
2012,11,29,14,21,196.50
2012,11,29,14,22,192.60
2012,11,29,14,23,192.00
2012,11,29,14,24,188.00
2012,11,29,14,25,173.10
2012,11,29,14,26,153.10
2012,11,29,14,27,139.90
2012,11,29,14,28,129.20
2012,11,29,14,29,119.50
2012,11,29,14,30,116.80
2012,11,29,14,31,118.90
2012,11,29,14,32,122.60
2012,11,29,14,33,122.70
2012,11,29,14,34,116.40
2012,11,29,14,35,109.10
2012,11,29,14,36,103.20
2012,11,29,14,37,97.80
2012,11,29,14,38,91.10
2012,11,29,14,39,80.90
2012,11,29,14,40,69.20
2012,11,29,14,41,61.70
2012,11,29,14,42,60.40
2012,11,29,14,43,63.20
2012,11,29,14,44,70.20
2012,11,29,14,45,76.40
2012,11,29,14,46,74.80
2012,11,29,14,47,69.40
2012,11,29,14,48,64.10
2012,11,29,14,49,59.60
2012,11,29,14,50,62.90
2012,11,29,14,51,75.50
2012,11,29,14,52,83.00
2012,11,29,14,53,79.80
2012,11,29,14,54,74.20
2012,11,29,14,55,68.60
2012,11,29,14,56,64.70
2012,11,29,14,57,63.00
2012,11,29,14,58,63.00
2012,11,29,14,59,62.70
2012,11,29,15,00,62.00
2012,11,29,15,01,61.10
2012,11,29,15,02,57.00
2012,11,29,15,03,49.80
2012,11,29,15,04,42.20
2012,11,29,15,05,34.80
2012,11,29,15,06,32.20
2012,11,29,15,07,34.50
2012,11,29,15,08,38.40
2012,11,29,15,09,33.20
2012,11,29,15,10,32.00
2012,11,29,15,11,32.50
2012,11,29,15,12,35.40
2012,11,29,15,13,37.90
2012,11,29,15,14,40.00
2012,11,29,15,15,40.00
2012,11,29,15,16,40.00
2012,11,29,15,17,40.00
2012,11,29,15,18,39.50
2012,11,29,15,19,34.80
2012,11,29,15,20,29.20
2012,11,29,15,21,25.80
2012,11,29,15,22,21.60
2012,11,29,15,23,19.30
2012,11,29,15,24,15.90
2012,11,29,15,25,11.10
2012,11,29,15,26,12.00
2012,11,29,15,27,12.40
2012,11,29,15,28,14.50
2012,11,29,15,29,16.00
2012,11,29,15,30,16.00
2012,11,29,15,31,16.00
2012,11,29,15,32,16.00
2012,11,29,15,33,14.80
2012,11,29,15,34,12.70
2012,11,29,15,35,12.00
2012,11,29,15,36,13.50
2012,11,29,15,37,14.00
2012,11,29,15,38,15.80
2012,11,29,15,39,16.00
2012,11,29,15,40,15.90
2012,11,29,15,41,13.70
2012,11,29,15,42,12.00
2012,11,29,15,43,12.00
2012,11,29,15,44,12.00
2012,11,29,15,45,12.00
2012,11,29,15,46,11.60
2012,11,29,15,47,9.00
2012,11,29,15,48,7.00
2012,11,29,15,49,7.00
2012,11,29,15,50,7.00
2012,11,29,15,51,5.50
2012,11,29,15,52,5.00
2012,11,29,15,53,5.00
2012,11,29,15,54,5.00
2012,11,29,15,55,5.00
2012,11,29,15,56,5.00
2012,11,29,15,57,5.00
2012,11,29,15,58,5.00
2012,11,29,15,59,5.00
2012,11,29,16,00,5.00
2012,11,29,16,01,5.00
2012,11,29,16,02,6.00
2012,11,29,16,03,7.00
2012,11,29,16,04,7.00
2012,11,29,16,05,5.60
2012,11,29,16,06,6.50
2012,11,29,16,07,7.00
2012,11,29,16,08,5.20
2012,11,29,16,09,5.00
2012,11,29,16,10,5.00
2012,11,29,16,11,4.50
2012,11,29,16,12,0.00
2012,11,29,16,13,0.00
2012,11,29,16,14,0.00
2012,11,29,16,15,0.00
2012,11,29,16,16,0.00
2012,11,29,16,17,0.00
2012,11,29,16,18,0.00
2012,11,29,16,19,0.00
2012,11,29,16,20,0.00
2012,11,29,16,21,0.00
2012,11,29,16,22,0.00
2012,11,29,16,23,0.00
2012,11,29,16,24,0.00
2012,11,29,16,25,0.00
2012,11,29,16,26,0.00
2012,11,29,16,27,0.00
2012,11,29,16,28,0.00
2012,11,29,16,29,0.00
2012,11,29,16,30,0.00
2012,11,29,16,31,0.00
2012,11,29,16,32,0.00
2012,11,29,16,33,0.00
2012,11,29,16,34,0.00
2012,11,29,16,35,0.00
2012,11,29,16,36,0.00
2012,11,29,16,37,0.00
2012,11,29,16,38,0.00
2012,11,29,16,39,0.00
2012,11,29,16,40,0.00
2012,11,29,16,41,0.00
2012,11,29,16,42,0.00
2012,11,29,16,43,0.00
2012,11,29,16,44,0.00
2012,11,29,16,45,0.00
2012,11,29,16,46,0.00
2012,11,29,16,47,0.00
2012,11,29,16,48,0.00
2012,11,29,16,49,0.00
2012,11,29,16,50,0.00
2012,11,29,16,51,0.00
2012,11,29,16,52,0.00
2012,11,29,16,53,0.00
2012,11,29,16,54,0.00
2012,11,29,16,55,0.00
2012,11,29,16,56,0.00
2012,11,29,16,57,0.00
2012,11,29,16,58,0.00
2012,11,29,16,59,0.00
2012,11,29,17,00,0.00
2012,11,29,17,01,0.00
2012,11,29,17,02,0.00
2012,11,29,17,03,0.00
2012,11,29,17,04,0.00
2012,11,29,17,05,0.00
2012,11,29,17,06,0.00
2012,11,29,17,07,0.00
2012,11,29,17,08,0.00
2012,11,29,17,09,0.00
2012,11,29,17,10,0.00
2012,11,29,17,11,0.00
2012,11,29,17,12,0.00
2012,11,29,17,13,0.00
2012,11,29,17,14,0.00
2012,11,29,17,15,0.00
2012,11,29,17,16,0.00
2012,11,29,17,17,0.00
2012,11,29,17,18,0.00
2012,11,29,17,19,0.00
2012,11,29,17,20,0.00
2012,11,29,17,21,0.00
2012,11,29,17,22,0.00
2012,11,29,17,23,0.00
2012,11,29,17,24,0.00
2012,11,29,17,25,0.00
2012,11,29,17,26,0.00
2012,11,29,17,27,0.00
2012,11,29,17,28,0.00
2012,11,29,17,29,0.00
2012,11,29,17,30,0.00
2012,11,29,17,31,0.00
2012,11,29,17,32,0.00
2012,11,29,17,33,0.00
2012,11,29,17,34,0.00
2012,11,29,17,35,0.00
2012,11,29,17,36,0.00
2012,11,29,17,37,0.00